GW3550 Weather Reports


Display with metric or nautical units.
time (UTC)temp
F
wind
direction
speed
MPH
gust
MPH
rain 1hr
in
rain 24hr
in
rain mn
in
humidity
%
barometer
mb
20260504225736 76 218 2.0 3.0 0.00 0.00 0.00 38 1015.9
20260504225231 76 191 6.0 8.0 0.00 0.00 0.00 37 1015.5
20260504224729 76 164 5.0 8.0 0.00 0.00 0.00 38 1015.8
20260504224226 77 232 1.0 2.0 0.00 0.00 0.00 38 1015.8
20260504223722 78 223 0.0 3.0 0.00 0.00 0.00 39 1015.7
20260504223218 78 212 1.0 3.0 0.00 0.00 0.00 38 1015.6
20260504222715 78 243 3.0 7.0 0.00 0.00 0.00 36 1015.7
20260504222212 78 209 1.0 2.0 0.00 0.00 0.00 37 1015.9
20260504221709 78 224 0.0 1.0 0.00 0.00 0.00 39 1015.5
20260504221206 78 240 0.0 4.0 0.00 0.00 0.00 37 1015.5
20260504220703 80 230 2.0 3.0 0.00 0.00 0.00 33 1015.5
20260504220200 82 232 1.0 2.0 0.00 0.00 0.00 35 1015.6
20260504215656 81 251 1.0 2.0 0.00 0.00 0.00 33 1015.7
20260504215154 79 110 0.0 2.0 0.00 0.00 0.00 35 1015.7
20260504214649 78 205 1.0 2.0 0.00 0.00 0.00 34 1015.5
20260504214146 78 118 4.0 7.0 0.00 0.00 0.00 36 1015.6
20260504213643 79 232 1.0 4.0 0.00 0.00 0.00 36 1015.6
20260504213139 79 201 0.0 2.0 0.00 0.00 0.00 37 1015.6
20260504212636 78 189 0.0 7.0 0.00 0.00 0.00 37 1015.6
20260504212133 77 221 0.0 2.0 0.00 0.00 0.00 41 1015.6
20260504211630 78 161 2.0 2.0 0.00 0.00 0.00 37 1015.6
20260504211126 78 224 0.0 0.0 0.00 0.00 0.00 36 1015.6
20260504210625 78 243 0.0 4.0 0.00 0.00 0.00 35 1015.8
20260504210120 78 181 4.0 6.0 0.00 0.00 0.00 35 1015.8
20260504205618 77 204 1.0 1.0 0.00 0.00 0.00 38 1015.8
20260504205116 77 223 0.0 3.0 0.00 0.00 0.00 39 1015.6
20260504204614 79 210 1.0 6.0 0.00 0.00 0.00 37 1015.9
20260504204112 82 235 0.0 1.0 0.00 0.00 0.00 32 1016.1
20260504203610 81 213 0.0 2.0 0.00 0.00 0.00 32 1015.9
20260504203102 80 230 1.0 3.0 0.00 0.00 0.00 35 1015.9
20260504202557 81 182 4.0 7.0 0.00 0.00 0.00 34 1016.0
20260504202054 81 175 3.0 4.0 0.00 0.00 0.00 33 1015.9
20260504201551 81 187 0.0 2.0 0.00 0.00 0.00 32 1016.1
20260504201049 80 290 1.0 7.0 0.00 0.00 0.00 32 1016.3
20260504200545 81 291 1.0 6.0 0.00 0.00 0.00 34 1016.1
20260504200042 80 197 3.0 4.0 0.00 0.00 0.00 35 1016.3
20260504195538 78 206 1.0 2.0 0.00 0.00 0.00 36 1016.3
20260504195035 79 231 0.0 2.0 0.00 0.00 0.00 36 1016.2
20260504194531 80 223 0.0 2.0 0.00 0.00 0.00 35 1016.6
20260504194027 81 207 1.0 2.0 0.00 0.00 0.00 36 1016.4
20260504193524 80 232 0.0 3.0 0.00 0.00 0.00 33 1016.4
20260504193023 79 252 2.0 3.0 0.00 0.00 0.00 32 1016.5
20260504192520 79 248 0.0 2.0 0.00 0.00 0.00 40 1016.6
20260504192018 79 245 1.0 2.0 0.00 0.00 0.00 34 1016.7
20260504191516 78 246 2.0 3.0 0.00 0.00 0.00 33 1016.9
20260504191012 77 116 0.0 1.0 0.00 0.00 0.00 39 1016.9
20260504190508 77 212 3.0 7.0 0.00 0.00 0.00 38 1017.1
20260504190004 77 119 0.0 1.0 0.00 0.00 0.00 40 1017.0
20260504185501 77 197 1.0 2.0 0.00 0.00 0.00 44 1017.0
20260504184958 78 203 1.0 2.0 0.00 0.00 0.00 37 1016.9
20260504184453 78 212 0.0 1.0 0.00 0.00 0.00 35 1017.5
20260504183949 78 217 0.0 6.0 0.00 0.00 0.00 34 1017.0
20260504183446 79 230 1.0 3.0 0.00 0.00 0.00 32 1017.3
20260504182944 79 250 3.0 4.0 0.00 0.00 0.00 32 1017.1
20260504182441 79 238 2.0 4.0 0.00 0.00 0.00 34 1017.5
20260504181938 79 70 1.0 2.0 0.00 0.00 0.00 37 1017.4
20260504181435 78 240 0.0 1.0 0.00 0.00 0.00 41 1017.6
20260504180934 78 240 0.0 2.0 0.00 0.00 0.00 36 1017.6
20260504180432 78 240 1.0 2.0 0.00 0.00 0.00 38 1017.6
20260504175930 77 340 1.0 4.0 0.00 0.00 0.00 37 1017.7
20260504175427 78 247 1.0 1.0 0.00 0.00 0.00 36 1017.9
20260504174925 76 266 0.0 3.0 0.00 0.00 0.00 37 1017.9
20260504174422 76 233 3.0 4.0 0.00 0.00 0.00 38 1017.7
20260504173919 79 243 4.0 7.0 0.00 0.00 0.00 38 1018.0
20260504173415 78 210 0.0 2.0 0.00 0.00 0.00 39 1018.3
20260504172913 77 206 1.0 1.0 0.00 0.00 0.00 42 1018.2
20260504172409 76 32 2.0 3.0 0.00 0.00 0.00 40 1018.2
20260504171905 75 229 2.0 3.0 0.00 0.00 0.00 41 1018.3
20260504171403 75 216 1.0 4.0 0.00 0.00 0.00 40 1018.4
20260504170900 76 177 2.0 3.0 0.00 0.00 0.00 39 1018.5
20260504170356 74 90 1.0 3.0 0.00 0.00 0.00 43 1018.3
20260504160315 73 246 2.0 4.0 0.00 0.00 0.00 43 1019.2
20260504150739 69 239 2.0 6.0 0.00 0.00 0.00 43 1019.7
20260504150236 69 241 0.0 6.0 0.00 0.00 0.00 44 1019.6
20260504141206 66 240 2.0 3.0 0.00 0.00 0.00 48 1019.8
20260504140703 66 243 4.0 4.0 0.00 0.00 0.00 48 1019.7
20260504140158 66 245 1.0 3.0 0.00 0.00 0.00 51 1019.7
20260504130626 61 231 1.0 2.0 0.00 0.00 0.00 59 1019.8
20260504130123 61 231 0.0 1.0 0.00 0.00 0.00 61 1019.5
20260504110508 46 234 0.0 1.0 0.00 0.00 0.00 85 1019.4
20260504100419 45 235 0.0 1.0 0.00 0.00 0.00 88 1019.0
20260504081806 47 240 0.0 0.0 0.00 0.00 0.00 84 1019.0
20260504081303 48 240 0.0 0.0 0.00 0.00 0.00 82 1018.9
20260504080759 47 240 0.0 0.0 0.00 0.00 0.00 82 1018.9
20260504080255 47 240 0.0 0.0 0.00 0.00 0.00 82 1019.1
20260504070223 51 240 0.0 1.0 0.00 0.00 0.00 71 1019.5
20260504060144 52 239 1.0 2.0 0.00 0.00 0.00 67 1019.4
20260504050612 54 238 1.0 2.0 0.00 0.00 0.00 62 1019.6
20260504050109 55 234 1.0 2.0 0.00 0.00 0.00 62 1019.6
20260504045606 55 234 1.0 2.0 0.00 0.00 0.00 62 1019.5
20260504045101 55 247 1.0 2.0 0.00 0.00 0.00 62 1019.5
20260504044559 55 244 1.0 2.0 0.00 0.00 0.00 61 1019.6
20260504044055 55 229 1.0 2.0 0.00 0.00 0.00 62 1019.6
20260504043553 55 257 2.0 2.0 0.00 0.00 0.00 62 1019.3
20260504043050 54 244 1.0 1.0 0.00 0.00 0.00 63 1019.6
20260504042547 54 243 1.0 1.0 0.00 0.00 0.00 64 1019.6
20260504042044 54 231 0.0 2.0 0.00 0.00 0.00 64 1019.6
20260504041539 54 249 1.0 2.0 0.00 0.00 0.00 64 1019.5
20260504041036 52 252 1.0 2.0 0.00 0.00 0.00 66 1019.6
20260504040533 53 237 0.0 0.0 0.00 0.00 0.00 67 1019.5
20260504040030 53 237 0.0 1.0 0.00 0.00 0.00 65 1019.6
20260504035527 53 237 0.0 0.0 0.00 0.00 0.00 66 1019.5
20260504035023 53 237 0.0 1.0 0.00 0.00 0.00 66 1019.5
20260504034521 53 237 0.0 1.0 0.00 0.00 0.00 66 1019.7
20260504034017 54 237 0.0 1.0 0.00 0.00 0.00 67 1019.8
20260504033516 54 237 0.0 0.0 0.00 0.00 0.00 65 1019.6
20260504033013 54 237 0.0 1.0 0.00 0.00 0.00 63 1019.8
20260504032509 53 237 0.0 0.0 0.00 0.00 0.00 66 1019.7
20260504032006 54 237 0.0 0.0 0.00 0.00 0.00 65 1019.7
20260504031503 54 237 1.0 1.0 0.00 0.00 0.00 64 1019.7
20260504030959 54 237 1.0 1.0 0.00 0.00 0.00 64 1019.8
20260504030457 54 237 0.0 1.0 0.00 0.00 0.00 63 1019.7
20260504025952 54 237 0.0 1.0 0.00 0.00 0.00 65 1019.7
20260504025450 55 237 0.0 1.0 0.00 0.00 0.00 64 1019.6
20260504024946 55 237 0.0 1.0 0.00 0.00 0.00 63 1019.7
20260504024443 55 237 0.0 1.0 0.00 0.00 0.00 61 1019.6
20260504023940 56 237 0.0 1.0 0.00 0.00 0.00 61 1019.4
20260504023437 56 237 1.0 1.0 0.00 0.00 0.00 60 1019.4
20260504022932 56 237 0.0 1.0 0.00 0.00 0.00 59 1019.6
20260504022429 56 237 0.0 2.0 0.00 0.00 0.00 59 1019.5
20260504021926 56 237 0.0 1.0 0.00 0.00 0.00 59 1019.5
20260504021423 56 237 0.0 1.0 0.00 0.00 0.00 59 1019.5
20260504020920 56 237 1.0 1.0 0.00 0.00 0.00 59 1019.2
20260504020416 56 237 1.0 1.0 0.00 0.00 0.00 59 1019.3
20260504013911 59 237 0.0 0.0 0.00 0.00 0.00 55 1018.8
20260504013409 59 237 0.0 0.0 0.00 0.00 0.00 55 1018.8
20260504012905 59 237 0.0 0.0 0.00 0.00 0.00 55 1018.8
20260504012403 59 237 0.0 1.0 0.00 0.00 0.00 51 1018.9
20260504011900 59 237 1.0 1.0 0.00 0.00 0.00 51 1018.9
20260504011356 59 237 1.0 1.0 0.00 0.00 0.00 51 1018.8
20260504010847 59 237 0.0 1.0 0.00 0.00 0.00 51 1018.8
20260504010343 59 237 0.0 0.0 0.00 0.00 0.00 51 1018.8
20260504005839 60 237 0.0 0.0 0.00 0.00 0.00 49 1018.5
20260504005336 61 237 0.0 0.0 0.00 0.00 0.00 48 1018.5
20260504004834 61 237 0.0 0.0 0.00 0.00 0.00 47 1018.4
20260504004331 62 237 1.0 1.0 0.00 0.00 0.00 46 1018.3
20260504003827 62 256 1.0 2.0 0.00 0.00 0.00 45 1018.3
20260504003325 62 241 1.0 3.0 0.00 0.00 0.00 44 1018.3
20260504002821 63 237 1.0 2.0 0.00 0.00 0.00 44 1018.3
20260504002318 63 228 1.0 2.0 0.00 0.00 0.00 43 1018.1
20260504001816 64 251 2.0 4.0 0.00 0.00 0.00 42 1017.8
20260504001313 64 251 1.0 4.0 0.00 0.00 0.00 41 1018.3
20260504000810 64 235 2.0 3.0 0.00 0.00 0.00 40 1018.1
20260504000307 65 243 0.0 3.0 0.00 0.00 0.00 40 1017.9
20260503235804 66 252 2.0 6.0 0.00 0.00 0.00 39 1018.1
20260503235301 66 249 4.0 8.0 0.00 0.00 0.00 38 1018.1
20260503234759 67 254 1.0 4.0 0.00 0.00 0.00 37 1018.2
20260503234257 67 234 1.0 3.0 0.00 0.00 0.00 37 1018.0
20260503233754 68 248 4.0 6.0 0.00 0.00 0.00 36 1018.1
20260503233249 68 246 2.0 4.0 0.00 0.00 0.00 36 1017.9
20260503232747 68 256 2.0 8.0 0.00 0.00 0.00 36 1018.0
20260503232244 69 260 4.0 8.0 0.00 0.00 0.00 36 1017.9
20260503231742 69 228 4.0 6.0 0.00 0.00 0.00 35 1018.0
20260503231239 69 265 4.0 4.0 0.00 0.00 0.00 35 1018.1
20260503230734 69 258 2.0 6.0 0.00 0.00 0.00 37 1018.0
20260503230232 69 257 4.0 7.0 0.00 0.00 0.00 36 1018.1